Broomfield, CO

1:14 AM MDT on July 25, 2016 (GMT -0600)
Jeffco

Weather History for KBJC - December, 2012

Change the Weather History Date:

Sunday, December 23, 2012

  Actual Average Record
Temperature  
Mean Temperature 42 °F -  
Max Temperature 53 °F 42 °F 58 °F (1989)
Min Temperature 30 °F 23 °F -15 °F (1990)
Degree Days  
Heating Degree Days 24    
Moisture  
Dew Point 3 °F    
Average Humidity 26    
Maximum Humidity 55    
Minimum Humidity 11    
Precipitation  
Precipitation 0.00 in - - ()
Sea Level Pressure  
Sea Level Pressure 29.88 in    
Wind  
Wind Speed 6 mph (West)    
Max Wind Speed 22 mph    
Max Gust Speed 36 mph    
Visibility 11 miles    
Events      
Averages and records for this station are not official NWS values.
T = Trace of Precipitation, MM = Missing Value Source: NWS Daily Summary

Daily Weather History Graph

Daily Weather History Graph

Search for Another Location

Airport or City:

Trip Planner

Search our weather history database for the weather conditions in past years. The results will help you decide how hot, cold, wet, or windy it might be!

Date:

Astronomy

Dec. 23, 2012 Rise Set
Actual Time 7:19 AM MST 4:40 PM MST
Civil Twilight 6:49 AM MST 5:10 PM MST
Nautical Twilight 6:15 AM MST 5:44 PM MST
Astronomical Twilight 5:42 AM MST 6:17 PM MST
Moon 1:32 PM MST (12/23) 3:04 AM MST (12/23)
Length of Visible Light 10h 21m
Length of Day
9h 20m
Waxing Gibbous, 82% of the Moon is Illuminated
Dec 23
Waxing Gibbous
Dec 28
Full
Jan 4
Last Quarter
Jan 11
New
Jan 18
First Quarter

Hourly Weather History & Observations

Time (MST) Temp. Windchill Dew Point Humidity Pressure Visibility Wind Dir Wind Speed Gust Speed Precip Events Conditions
12:16 AM 32.0 °F 26.4 °F -0.4 °F 25% 29.87 in 10.0 mi West 5.8 mph - N/A   Clear
12:36 AM 32.0 °F 27.5 °F -2.2 °F 23% 29.86 in 10.0 mi WSW 4.6 mph - N/A   Clear
12:56 AM 32.0 °F 28.7 °F -4.0 °F 21% 29.86 in 10.0 mi WSW 3.5 mph - N/A   Clear
1:16 AM 33.8 °F - -5.8 °F 18% 29.86 in 10.0 mi Calm Calm - N/A   Clear
1:36 AM 32.0 °F - 1.4 °F 27% 29.86 in 10.0 mi Calm Calm - N/A   Clear
1:56 AM 32.0 °F - -0.4 °F 25% 29.86 in 10.0 mi Calm Calm - N/A   Clear
2:16 AM 32.0 °F - -4.0 °F 21% 29.86 in 10.0 mi Calm Calm - N/A   Clear
2:36 AM 33.8 °F 29.6 °F -5.8 °F 18% 29.86 in 10.0 mi South 4.6 mph - N/A   Clear
2:55 AM 35.6 °F - -5.8 °F 17% 29.86 in 10.0 mi Calm Calm - N/A   Clear
3:16 AM 32.0 °F - -4.0 °F 21% 29.85 in 10.0 mi Calm Calm - N/A   Clear
3:36 AM 35.6 °F 30.7 °F -7.6 °F 16% 29.85 in 10.0 mi South 5.8 mph - N/A   Clear
3:55 AM 37.4 °F 30.3 °F -7.6 °F 15% 29.85 in 10.0 mi WSW 10.4 mph - N/A   Clear
4:16 AM 35.6 °F 30.7 °F -7.6 °F 16% 29.85 in 10.0 mi SW 5.8 mph - N/A   Clear
4:36 AM 42.8 °F 40.1 °F -7.6 °F 12% 29.84 in 10.0 mi West 4.6 mph - N/A   Clear
4:56 AM 41.0 °F 35.8 °F -5.8 °F 14% 29.84 in 10.0 mi WSW 8.1 mph - N/A   Clear
5:55 AM 46.4 °F 39.2 °F -2.2 °F 13% 29.85 in 20.0 mi WNW 18.4 mph 24.2 mph N/A   Partly Cloudy
6:50 AM 46.4 °F 38.5 °F 1.4 °F 16% 29.86 in 30.0 mi WNW 21.9 mph 35.7 mph N/A   Partly Cloudy
7:58 AM 44.6 °F 38.8 °F 3.2 °F 18% 29.87 in 60.0 mi WNW 11.5 mph 18.4 mph N/A   Partly Cloudy
8:49 AM 48.2 °F - 3.2 °F 16% 29.89 in 60.0 mi WNW 13.8 mph 17.3 mph N/A   Partly Cloudy
9:47 AM 50.0 °F - 3.2 °F 15% 29.90 in 60.0 mi WNW 21.9 mph - N/A   Scattered Clouds
10:55 AM 51.8 °F - 1.4 °F 13% 29.88 in 60.0 mi North 6.9 mph 24.2 mph N/A   Scattered Clouds
11:26 AM 53.6 °F - -0.4 °F 11% 29.88 in 60.0 mi West 13.8 mph 23.0 mph N/A   Scattered Clouds
11:47 AM 53.6 °F - 1.4 °F 12% 29.89 in 60.0 mi WNW 11.5 mph 23.0 mph N/A   Scattered Clouds
12:47 PM 51.8 °F - 1.4 °F 13% 29.89 in 60.0 mi West 21.9 mph - N/A   Scattered Clouds
1:48 PM 50.0 °F - 1.4 °F 14% 29.88 in 60.0 mi West 18.4 mph 34.5 mph N/A   Scattered Clouds
2:47 PM 48.2 °F - 3.2 °F 16% 29.89 in 60.0 mi West 21.9 mph 31.1 mph N/A   Scattered Clouds
3:48 PM 48.2 °F - 3.2 °F 16% 29.88 in 60.0 mi WNW 3.5 mph - N/A   Scattered Clouds
4:46 PM 44.6 °F 39.2 °F -0.4 °F 15% 29.90 in 70.0 mi WNW 10.4 mph - N/A   Partly Cloudy
5:48 PM 41.0 °F 39.0 °F 10.4 °F 29% 29.92 in 40.0 mi ENE 3.5 mph - N/A   Scattered Clouds
6:48 PM 37.4 °F 32.1 °F 12.2 °F 36% 29.94 in 25.0 mi Variable 6.9 mph - N/A   Partly Cloudy
7:48 PM 37.4 °F 34.9 °F 15.8 °F 41% 29.93 in 25.0 mi SSE 3.5 mph - N/A   Partly Cloudy
8:46 PM 35.6 °F 32.8 °F 15.8 °F 44% 29.91 in 25.0 mi SSE 3.5 mph - N/A   Partly Cloudy
9:46 PM 32.0 °F 25.6 °F 15.8 °F 51% 29.90 in 20.0 mi ESE 6.9 mph - N/A   Partly Cloudy
10:16 PM 32.0 °F 27.5 °F 17.6 °F 55% 29.91 in 10.0 mi West 4.6 mph - N/A   Clear
10:36 PM 32.0 °F - 15.8 °F 51% 29.90 in 10.0 mi Calm Calm - N/A   Clear
10:56 PM 30.2 °F 26.7 °F 15.8 °F 55% 29.91 in 10.0 mi West 3.5 mph - N/A   Clear
11:16 PM 32.0 °F 25.6 °F 17.6 °F 55% 29.90 in 10.0 mi NNW 6.9 mph - N/A   Clear
11:36 PM 32.0 °F 26.4 °F 15.8 °F 51% 29.89 in 10.0 mi NNW 5.8 mph - N/A   Clear
11:55 PM 30.2 °F 23.4 °F 15.8 °F 55% 29.89 in 10.0 mi NW 6.9 mph - N/A   Clear